Manistique, MI

8:35 AM EDT on April 25, 2017 (GMT -0400)
Schoolcraft County

Weather History for KISQ - April, 2013

Change the Weather History Date:

Monday, April 29, 2013

  Actual Average Record
Temperature  
Mean Temperature 42 °F -  
Max Temperature 46 °F 54 °F 82 °F (1990)
Min Temperature 37 °F 34 °F 20 °F (1977)
Degree Days  
Heating Degree Days 24    
Moisture  
Dew Point 39 °F    
Average Humidity 87    
Maximum Humidity 93    
Minimum Humidity 76    
Precipitation  
Precipitation 0.00 in - - ()
Sea Level Pressure  
Sea Level Pressure 29.83 in    
Wind  
Wind Speed 4 mph (SE)    
Max Wind Speed 10 mph    
Max Gust Speed -    
Visibility 6 miles    
Events Fog , Rain    
Averages and records for this station are not official NWS values.
T = Trace of Precipitation, MM = Missing Value Source: NWS Daily Summary

Daily Weather History Graph

Daily Weather History Graph

Search for Another Location

Airport or City:

Trip Planner

Search our weather history database for the weather conditions in past years. The results will help you decide how hot, cold, wet, or windy it might be!

Date:

Astronomy

Apr. 29, 2013 Rise Set
Actual Time 6:34 AM EDT 8:50 PM EDT
Civil Twilight 6:01 AM EDT 9:23 PM EDT
Nautical Twilight 5:20 AM EDT 10:04 PM EDT
Astronomical Twilight 4:35 AM EDT 10:50 PM EDT
Moon 12:24 AM EDT (4/29) 9:49 AM EDT (4/29)
Length of Visible Light 15h 21m
Length of Day
14h 16m
Waning Gibbous, 80% of the Moon is Illuminated
Apr 29
Waning Gibbous
May 2
Last Quarter
May 9
New
May 18
First Quarter
May 25
Full

Hourly Weather History & Observations

Time (EDT) Temp. Windchill Dew Point Humidity Pressure Visibility Wind Dir Wind Speed Gust Speed Precip Events Conditions
12:15 AM 42.8 °F - 37.4 °F 81% 29.81 in 10.0 mi Calm Calm - N/A   Clear
12:34 AM 44.6 °F - 37.4 °F 76% 29.82 in 10.0 mi Calm Calm - N/A   Clear
12:54 AM 44.6 °F - 37.4 °F 76% 29.81 in 10.0 mi Calm Calm - N/A   Clear
1:15 AM 41.0 °F - 37.4 °F 87% 29.82 in 10.0 mi Calm Calm - N/A   Clear
1:34 AM 41.0 °F - 35.6 °F 81% 29.82 in 10.0 mi Calm Calm - N/A   Clear
1:55 AM 39.2 °F - 35.6 °F 87% 29.82 in 10.0 mi Calm Calm - N/A   Clear
2:15 AM 39.2 °F 37.0 °F 35.6 °F 87% 29.82 in 10.0 mi ESE 3.5 mph - N/A   Clear
2:34 AM 39.2 °F 35.9 °F 35.6 °F 87% 29.82 in 10.0 mi SE 4.6 mph - N/A   Clear
2:55 AM 37.4 °F - 35.6 °F 93% 29.81 in 10.0 mi Calm Calm - N/A   Clear
3:14 AM 39.2 °F 35.9 °F 35.6 °F 87% 29.80 in 10.0 mi SSE 4.6 mph - N/A   Clear
3:35 AM 39.2 °F 35.9 °F 35.6 °F 87% 29.80 in 10.0 mi South 4.6 mph - N/A   Clear
3:55 AM 41.0 °F 39.0 °F 35.6 °F 81% 29.81 in 10.0 mi South 3.5 mph - N/A   Clear
4:14 AM 39.2 °F 35.0 °F 35.6 °F 87% 29.82 in 10.0 mi SSE 5.8 mph - N/A   Scattered Clouds
4:35 AM 39.2 °F 35.9 °F 35.6 °F 87% 29.83 in 10.0 mi South 4.6 mph - N/A   Mostly Cloudy
4:55 AM 41.0 °F 38.0 °F 35.6 °F 81% 29.82 in 10.0 mi South 4.6 mph - N/A   Mostly Cloudy
5:14 AM 42.8 °F 39.3 °F 37.4 °F 81% 29.83 in 10.0 mi South 5.8 mph - N/A   Mostly Cloudy
5:35 AM 42.8 °F 39.3 °F 37.4 °F 81% 29.82 in 10.0 mi SSE 5.8 mph - N/A   Mostly Cloudy
5:54 AM 42.8 °F 40.1 °F 37.4 °F 81% 29.83 in 10.0 mi SSW 4.6 mph - N/A   Scattered Clouds
6:15 AM 42.8 °F 41.1 °F 37.4 °F 81% 29.82 in 10.0 mi South 3.5 mph - N/A   Clear
6:35 AM 42.8 °F 38.0 °F 37.4 °F 81% 29.82 in 10.0 mi SSE 8.1 mph - N/A   Scattered Clouds
6:54 AM 42.8 °F 41.1 °F 37.4 °F 81% 29.82 in 10.0 mi SSE 3.5 mph - N/A   Mostly Cloudy
7:15 AM 44.6 °F 41.4 °F 39.2 °F 81% 29.82 in 10.0 mi South 5.8 mph - N/A Rain Rain
7:34 AM 44.6 °F 42.2 °F 39.2 °F 81% 29.83 in 10.0 mi South 4.6 mph - N/A   Overcast
7:55 AM 42.8 °F 37.5 °F 39.2 °F 87% 29.84 in 10.0 mi SSW 9.2 mph - N/A Rain Rain
8:15 AM 42.8 °F 39.3 °F 39.2 °F 87% 29.84 in 4.0 mi South 5.8 mph - N/A Rain Light Rain
8:34 AM 42.8 °F 40.1 °F 39.2 °F 87% 29.84 in 2.0 mi SSE 4.6 mph - N/A Rain Light Rain
8:55 AM 42.8 °F 40.1 °F 39.2 °F 87% 29.84 in 1.5 mi SSE 4.6 mph - N/A Rain Light Rain
9:15 AM 42.8 °F 40.1 °F 39.2 °F 87% 29.84 in 1.5 mi SE 4.6 mph - N/A Rain Light Rain
9:34 AM 42.8 °F 40.1 °F 39.2 °F 87% 29.83 in 1.5 mi SE 4.6 mph - N/A Rain Light Rain
9:55 AM 42.8 °F 40.1 °F 39.2 °F 87% 29.83 in 1.0 mi SE 4.6 mph - N/A Rain Light Rain
10:14 AM 42.8 °F 38.6 °F 39.2 °F 87% 29.84 in 1.0 mi SSE 6.9 mph - N/A Rain Rain
10:35 AM 41.0 °F 38.0 °F 39.2 °F 93% 29.83 in 0.8 mi SE 4.6 mph - N/A Rain Light Rain
10:54 AM 42.8 °F 40.1 °F 39.2 °F 87% 29.83 in 1.8 mi SSE 4.6 mph - N/A Rain Rain
11:15 AM 42.8 °F 39.3 °F 39.2 °F 87% 29.83 in 2.5 mi South 5.8 mph - N/A   Overcast
11:34 AM 42.8 °F 41.1 °F 39.2 °F 87% 29.84 in 5.0 mi South 3.5 mph - N/A   Overcast
11:55 AM 41.0 °F - 39.2 °F 93% 29.85 in 5.0 mi Calm Calm - N/A   Overcast
12:15 PM 41.0 °F - 39.2 °F 93% 29.85 in 4.0 mi Calm Calm - N/A   Overcast
12:34 PM 42.8 °F 41.1 °F 39.2 °F 87% 29.85 in 3.0 mi SE 3.5 mph - N/A   Overcast
12:55 PM 42.8 °F 41.1 °F 41.0 °F 93% 29.85 in 4.0 mi SSE 3.5 mph - N/A   Overcast
1:14 PM 42.8 °F 40.1 °F 41.0 °F 93% 29.84 in 4.0 mi SE 4.6 mph - N/A   Overcast
1:34 PM 42.8 °F 41.1 °F 39.2 °F 87% 29.84 in 5.0 mi East 3.5 mph - N/A   Overcast
1:55 PM 44.6 °F 42.2 °F 41.0 °F 87% 29.84 in 7.0 mi ESE 4.6 mph - N/A   Overcast
2:14 PM 42.8 °F 39.3 °F 41.0 °F 93% 29.84 in 7.0 mi SE 5.8 mph - N/A   Overcast
2:35 PM 42.8 °F 38.6 °F 39.2 °F 87% 29.84 in 7.0 mi SE 6.9 mph - N/A   Overcast
2:55 PM 42.8 °F 39.3 °F 39.2 °F 87% 29.84 in 10.0 mi SE 5.8 mph - N/A   Overcast
3:14 PM 44.6 °F 42.2 °F 41.0 °F 87% 29.84 in 10.0 mi SSE 4.6 mph - N/A   Overcast
3:35 PM 44.6 °F 41.4 °F 39.2 °F 81% 29.84 in 10.0 mi SE 5.8 mph - N/A   Overcast
3:54 PM 42.8 °F 39.3 °F 39.2 °F 87% 29.84 in 10.0 mi SE 5.8 mph - N/A   Overcast
4:15 PM 46.4 °F 44.3 °F 42.8 °F 87% 29.83 in 10.0 mi ESE 4.6 mph - N/A   Overcast
4:35 PM 46.4 °F 43.5 °F 42.8 °F 87% 29.83 in 10.0 mi SE 5.8 mph - N/A   Mostly Cloudy
4:54 PM 44.6 °F 40.7 °F 39.2 °F 81% 29.83 in 10.0 mi SSE 6.9 mph - N/A   Overcast
5:15 PM 44.6 °F 43.1 °F 41.0 °F 87% 29.83 in 10.0 mi SE 3.5 mph - N/A   Overcast
5:34 PM 44.6 °F 43.1 °F 41.0 °F 87% 29.83 in 10.0 mi SE 3.5 mph - N/A   Overcast
5:55 PM 46.4 °F 42.9 °F 41.0 °F 81% 29.83 in 10.0 mi ESE 6.9 mph - N/A   Overcast
6:14 PM 46.4 °F 42.9 °F 41.0 °F 81% 29.83 in 10.0 mi ESE 6.9 mph - N/A   Mostly Cloudy
6:35 PM 46.4 °F 42.4 °F 41.0 °F 81% 29.82 in 10.0 mi ESE 8.1 mph - N/A   Overcast
6:55 PM 44.6 °F 40.2 °F 41.0 °F 87% 29.83 in 10.0 mi SE 8.1 mph - N/A   Overcast
7:14 PM 44.6 °F 40.7 °F 41.0 °F 87% 29.83 in 5.0 mi ESE 6.9 mph - N/A   Overcast
7:35 PM 44.6 °F 40.2 °F 41.0 °F 87% 29.83 in 5.0 mi SSE 8.1 mph - N/A   Overcast
7:54 PM 44.6 °F 40.2 °F 41.0 °F 87% 29.83 in 2.5 mi SE 8.1 mph - N/A   Overcast
8:14 PM 42.8 °F 37.5 °F 39.2 °F 87% 29.83 in 0.2 mi ESE 9.2 mph - N/A Fog Fog
8:35 PM 42.8 °F 40.1 °F 41.0 °F 93% 29.84 in 0.2 mi SE 4.6 mph - N/A Fog Fog
8:54 PM 44.6 °F 42.2 °F 41.0 °F 87% 29.84 in 0.2 mi SE 4.6 mph - N/A Fog Fog
9:15 PM 44.6 °F 42.2 °F 41.0 °F 87% 29.84 in 0.2 mi ESE 4.6 mph - N/A Fog Fog
9:35 PM 44.6 °F 43.1 °F 42.8 °F 93% 29.84 in 0.2 mi ESE 3.5 mph - N/A Fog Fog
9:54 PM 44.6 °F 41.4 °F 42.8 °F 93% 29.84 in 0.2 mi ESE 5.8 mph - N/A Fog Fog
10:15 PM 46.4 °F 42.9 °F 44.6 °F 93% 29.84 in 0.8 mi ESE 6.9 mph - N/A   Overcast
10:34 PM 46.4 °F 41.9 °F 44.6 °F 93% 29.84 in 0.5 mi ESE 9.2 mph - N/A Fog Fog
10:55 PM 46.4 °F 41.9 °F 44.6 °F 93% 29.84 in 1.8 mi East 9.2 mph - N/A   Overcast
11:35 PM 46.4 °F 41.5 °F 44.6 °F 93% 29.83 in 2.0 mi ESE 10.4 mph - N/A   Overcast
11:55 PM 46.4 °F 41.5 °F 44.6 °F 93% 29.84 in 0.5 mi ESE 10.4 mph - N/A Fog Fog